www.pogodaiklimat.ru

Погода и климат >> Архив погоды >> Южная Африка >> Порт Ноллоз


ПОГОДА в Порт Ноллоз

  • Прогноз погоды в Порт Ноллоз
  • Монитор погоды в Порт Ноллоз

АРХИВ ПОГОДЫ в Порт Ноллоз

Время (UTC), дата Ветер
(напр.,м/с)
 
Видим.   Явления Облачность Т
(С)
Тd
(С)
f
(%)
Тe
(С)
Тes
(С)
Комфортность P
(гПа)
Po
(гПа)
Тmin
(С)
Tmax
(С)
R
(мм)
R24
(мм)
S
(см)
00 9.06 С 4 н/о н/о +26.0 -2.3 15 +24 +24 комфорт 1015.9 1015.0 +24.5 +32.5
03 9.06 С 4 н/о н/о +26.5 -1.9 15 +24 +24 комфорт 1014.8 1013.9 +24.5 +32.5
06 9.06 СЗ 2 н/о н/о +15.6 +6.6 55 +16 +16 1016.6 1015.7 +14.3
09 9.06 З 5 н/о н/о +16.8 +6.9 52 +16 +16 1018.4 1017.5 +14.3 +22.4
12 9.06 СЗ 4 н/о н/о +16.7 +13.2 80 +16 +16 1019.2 1018.3 +14.3 +22.4
15 9.06 З 5 н/о н/о +13.8 +12.0 89 +12 +12 1020.4 1019.5 +13.7 +22.4
18 9.06 С 3 н/о н/о +13.5 +12.2 92 +12 +12 1023.1 1022.2 +13.0 +22.4
21 9.06 С 2 н/о н/о +12.4 +11.1 92 +12 +12 1023.9 1023.0 +12.1 +22.4
00 10.06 СВ 2 н/о н/о +13.2 +11.4 89 +13 +13 1024.2 1023.3 +12.1 +22.4
03 10.06 СВ 2 н/о н/о +12.3 +10.3 88 +12 +12 1023.8 1022.9 +12.1 +22.4
06 10.06 В 3 н/о н/о +10.2 +8.9 92 +8 +8 1025.1 1024.2 +10.2
09 10.06 В 3 н/о н/о +19.0 +12.3 65 +20 +20 1025.4 1024.5 +10.2 +19.0
15 10.06 ЮВ 4 н/о н/о +16.2 +12.0 76 +15 +15 1022.2 1021.3 +16.2 +20.0
18 10.06 ЮВ 4 н/о н/о +13.3 +11.5 89 +12 +12 1022.1 1021.2 +13.3 +20.0
21 10.06 ЮВ 2 н/о н/о +11.2 +10.1 93 +10 +10 1021.5 1020.6 +11.2 +20.0
00 11.06 В 3 н/о н/о +10.2 +8.8 91 +8 +8 1020.5 1019.6 +9.4 +20.0
03 11.06 СЗ 2 н/о н/о +9.2 +7.3 88 +8 +8 1018.9 1018.0 +9.0 +20.0
06 11.06 СВ 1 н/о н/о +7.0 +5.7 91 +6 +6 1019.6 1018.7 +6.4
09 11.06 З 1 н/о н/о +13.2 +9.4 78 +13 +13 1019.1 1018.2 +6.4 +15.0
12 11.06 З 1 н/о н/о +15.3 +10.9 75 +16 +16 1017.3 1016.4 +6.4 +15.3
15 11.06 ЮВ 3 н/о н/о +16.1 +12.5 79 +16 +16 1019.1 1018.2 +14.5 +17.2
18 11.06 штиль 0 н/о н/о +11.8 +10.3 91 +11 +11 1021.6 1020.7 +11.8 +17.2
21 11.06 штиль 0 н/о н/о +10.8 +9.7 93 +10 +10 1023.3 1022.4 +10.8 +17.2
00 12.06 В 1 н/о н/о +8.4 +7.6 95 +7 +7 1023.9 1023.0 +8.4 +17.2
03 12.06 штиль 0 н/о н/о +11.1 +10.3 95 +10 +10 1024.4 1023.5 +8.1 +17.2
06 12.06 штиль 0 н/о н/о +11.3 +10.6 95 +11 +11 1026.4 1025.5 +8.1 0.4
09 12.06 Ю 1 н/о н/о +13.8 +12.2 90 +14 +14 1028.2 1027.3 +8.1 +13.8
12 12.06 Ю 2 н/о н/о +15.6 +12.0 79 +16 +16 1027.4 1026.5 +8.1 +15.9
15 12.06 ЮВ 5 н/о н/о +15.5 +9.4 67 +14 +14 1027.0 1026.1 +15.4 +16.6
18 12.06 ЮВ 5 н/о н/о +12.5 +8.8 78 +10 +10 1028.9 1028.0 +12.4 +16.6
21 12.06 ЮВ 3 н/о н/о +11.3 +5.0 65 +10 +10 1029.6 1028.7 +11.0 +16.6
00 13.06 В 3 н/о н/о +8.8 +3.4 69 +6 +6 1029.9 1029.0 +8.5 +16.6
03 13.06 ЮВ 3 н/о н/о +7.9 +1.7 65 +6 +6 1029.6 1028.6 +7.0 +16.6
06 13.06 ЮВ 3 н/о н/о +7.9 +0.1 58 +6 +6 1029.9 1028.9 +7.0
09 13.06 В 7 н/о н/о +18.6 +1.7 32 +18 +18 1028.9 1028.0 +7.0 +18.6
12 13.06 СВ 4 н/о н/о +23.7 +0.9 22 +23 +23 комфорт 1025.8 1024.9 +7.0 +23.8
15 13.06 ЮВ 7 н/о н/о +15.3 +6.9 57 +14 +14 1024.8 1023.9 +15.2 +25.3
18 13.06 ЮВ 5 н/о н/о +12.3 +7.6 73 +10 +10 1025.5 1024.6 +12.3 +25.3
21 13.06 ЮВ 2 н/о н/о +10.9 +5.4 69 +10 +10 1025.6 1024.7 +10.7 +25.3
00 14.06 В 3 н/о н/о +11.5 -1.2 41 +10 +10 1024.5 1023.6 +10.5 +25.3
03 14.06 В 3 н/о н/о +11.6 -3.2 35 +10 +10 1024.0 1023.1 +10.5 +25.3
06 14.06 штиль 0 н/о н/о +7.3 -3.2 47 +7 +7 1024.7 1023.8 +7.3
09 14.06 З 1 н/о н/о +14.3 +2.9 46 +15 +15 1025.1 1024.2 +7.1 +14.9
12 14.06 З 1 н/о н/о +16.2 +6.4 52 +17 +17 1022.3 1021.4 +7.1 +17.7
15 14.06 Ю 2 н/о н/о +20.8 +0.2 25 +22 +22 комфорт 1021.0 1020.1 +15.4 +21.4
18 14.06 В 3 н/о н/о +12.1 +6.6 69 +11 +11 1021.8 1020.9 +12.1 +21.6
21 14.06 С 1 н/о н/о +9.5 +5.6 77 +9 +9 1021.9 1021.0 +8.9 +21.6
00 15.06 В 1 н/о н/о +7.1 -2.6 50 +7 +7 1021.2 1020.3 +6.8 +21.6
03 15.06 В 2 н/о н/о +8.1 -4.3 41 +7 +7 1020.6 1019.7 +6.8 +21.6
06 15.06 СВ 2 н/о н/о +8.7 -4.8 38 +8 +8 1021.3 1020.4 +6.8
09 15.06 Ю 2 н/о н/о +16.2 +4.6 46 +17 +17 1022.3 1021.4 +6.8 +18.0
12 15.06 ЮВ 3 н/о н/о +18.8 +7.9 49 +19 +19 1019.7 1018.8 +6.8 +20.5
15 15.06 ЮВ 5 н/о н/о +19.3 +1.9 31 +19 +19 1018.4 1017.5 +17.1 +20.5
18 15.06 ЮВ 3 н/о н/о +11.6 +9.0 84 +10 +10 1019.6 1018.7 +11.5 +20.5
21 15.06 В 3 н/о н/о +9.9 +8.1 89 +8 +8 1019.7 1018.8 +9.6 +20.5

 

Местоположение метеостанции Порт Ноллоз (Южная Африка): широта -29.23 долгота 16.87 высота над уровнем моря 10 м.

В архиве по умолчанию представлена погода в Порт Ноллоз за последнюю неделю. Архивные данные за месяц целиком и за предыдущие месяцы, начиная с января 2011 года, Вы можете получить, выбрав интересующий диапазон дат из раскрывающегося списка и нажав кнопку "Ввод!".


*Определитесь, кто Вы:
робот инопланетянин человек

Внимание! Время в таблицах - всемирное. Для получения местного времени необходимо прибавить поправку, которая равна 2 ч.

Смотрите также архив погоды в соседних городах и на ближайших метеорологических станциях:

Погода в Александер-Бее (Южная Африка) (82 км)
Погода в Виулсдрифе (Южная Африка) (92 км)
Погода в Спрингбоке (Южная Африка) (111 км)
Погода в Коингнаасе (Южная Африка) (115 км)
Погода в Портервилле (Южная Африка) (222 км)
Погода в Пофаддере (Южная Африка) (244 км)
Погода в Фридендале (Южная Африка) (312 км)
Погода в Ниеувоудтвилле (Южная Африка) (317 км)
Погода в Китмансхупе (Намибия) (324 км)
Погода в Людерице (Намибия) (337 км)

Пояснения к столбцам:

Ветер - указаны скорость ветра в м/с - средняя за 10 мин, порывы в срок и между сроками (в фигурных скобках) и направление, откуда дует ветер: С - северный, СВ - северо-восточный, В - восточный, ЮВ - юго-восточный, Ю - южный, ЮЗ - юго-западный, З - западный, СЗ - северо-западный.
Видимость - горизонтальная дальность видимости в метрах или километрах. При видимости от 1 до 10 км при отсутствии осадков обычно наблюдается дымка, при ухудшении видимости до 1 км и менее - туман. В сухую погоду видимость может ухудшаться дымом, пылью или мглою.
Явления - указаны атмосферные явления, наблюдавшиеся в срок или в последний час перед сроком; фигурными скобками обозначены явления, наблюдавшиеся между сроками (за 1-3 часа до срока); квадратными скобками обозначены град или гололедные отложения с указанием их диаметра в мм.
Облачность - указаны через наклонную черту общая и нижняя облачность в баллах и высота нижней границы облаков в метрах; квадратными скобками обозначены формы облаков: Ci - перистые, Cs - перисто-слоистые, Cc - перисто-кучевые, Ac - высококучевые, As - высокослоистые, Sc - слоисто-кучевые, Ns - слоисто-дождевые, Cu - кучевые, Cb - кучево-дождевые. Подробнее классификацию облаков см. в Атласе облаков (PDF).
T - Температура воздуха - температура, измеренная на высоте 2 м над землей.
Td - Температура точки росы - температура, при понижении до которой содержащийся в воздухе водяной пар достигнет насыщения.
f - Относительная влажность воздуха - влажноcть воздуха, измеренная на высоте 2 м над землей.
Te - Эффективная температура - температура, которую ощущает одетый по сезону человек в тени. Характеристика душности погоды. При расчете учитывается влияние влажности воздуха и скорости ветра на теплоощущения человека.
Tes - Эффективная температура на солнце - температура, которую ощущает человек, с поправкой на солнечный нагрев. Характеристика знойности погоды. Зависит от высоты солнца над горизонтом, облачности и скорости ветра. Ночью, в пасмурную погоду, а также при ветре 12 м/с и более поправка равна нулю.
P - Атмосферное давление - приведенное к уровню моря атмосферное давление.
Po - Атмосферное давление - измеренное на уровне метеостанции атмосферное давление.
Tmin - Минимальная температура - минимум температуры воздуха на высоте 2 м над землей.
Tmax - Максимальная температура - максимум температуры воздуха на высоте 2 м над землей.
R - Количество осадков - Количество выпавших осадков за период времени, мм. При наведении курсора мыши на число - период времени, за который выпало указанное количество осадков.
R24 - Количество осадков - Количество выпавших осадков за 24 часа, мм.
S - Снежный покров - Высота снежного покрова, см. При наведении курсора мыши на число - состояние снежного покрова и степень покрытия местности в баллах.